Theta_e
312 313 314 314 314 315 315 315 315 313 313 314 314 316 316 317 319 320 321 317 320 322 322 326 333 335 336 335 334 332 332 331 330 329 328 327 326 325 325 324 323 321 321
312 313 313 314 314 314 316 316 315 314 314 315 314 315 315 318 319 320 321 322 319 321 322 326 332 334 336 334 333 333 333 331 329 328 327 325 325 324 323 322 321 319 321
312 313 314 313 313 314 316 316 316 316 316 315 314 314 314 318 319 320 321 321 318 318 322 327 332 332 337 335 334 334 332 330 328 327 325 325 324 323 322 320 321 320 318
312 313 313 312 314 314 315 314 314 314 314 314 313 313 314 315 314 318 322 323 325 326 321 327 328 328 332 333 335 333 331 329 327 325 325 323 323 322 321 321 320 318 318
312 313 313 313 314 315 314 313 314 315 313 313 312 311 311 311 313 316 318 322 326 329 329 324 325 326 331 332 334 332 330 328 326 325 323 322 321 320 320 319 318 317 316
312 313 313 314 314 313 313 314 313 314 314 313 313 310 310 311 311 312 315 322 325 328 327 326 326 324 326 331 330 330 329 327 325 323 322 321 320 320 319 318 317 317 316
312 313 313 313 314 313 313 314 313 313 313 314 313 310 311 311 309 309 313 321 322 322 323 324 325 324 325 327 329 329 328 326 324 323 322 321 319 319 318 318 317 315 314
311 310 312 313 313 313 314 313 313 312 313 314 309 312 307 308 308 308 311 316 318 320 320 322 323 323 324 323 322 325 325 325 323 321 321 321 320 319 318 317 316 314 316
311 311 312 313 313 313 313 314 313 312 310 315 313 309 306 301 303 307 307 313 314 316 316 318 317 320 320 320 321 320 321 322 322 322 321 320 319 317 317 315 315 317 314
310 310 312 313 312 313 313 314 313 314 313 312 315 313 312 310 302 301 305 308 312 312 314 315 314 315 316 315 311 309 314 318 319 319 319 317 315 315 314 317 316 314 313
309 309 312 312 312 313 314 313 312 314 314 313 314 313 312 308 306 304 301 303 305 308 311 312 313 312 313 313 312 308 310 312 313 314 315 316 317 318 317 315 313 314 315
309 309 311 312 313 313 314 314 313 314 314 315 315 314 315 309 306 303 298 297 299 300 304 308 309 309 309 308 305 304 308 311 312 312 312 313 314 314 314 315 316 314 312
307 308 311 311 312 313 315 315 314 314 315 314 314 314 315 311 309 306 303 300 296 297 299 300 305 307 308 307 305 303 304 307 309 309 309 310 311 312 312 313 312 310 309
307 308 310 311 312 313 314 315 314 313 314 315 314 315 313 309 308 309 305 301 298 296 295 296 299 303 305 305 300 300 304 304 307 308 308 308 309 309 309 308 307 307 306
306 307 309 311 312 313 314 314 313 312 313 315 313 314 313 312 312 308 308 308 304 297 293 294 295 299 301 303 301 303 302 299 304 305 305 306 307 307 306 305 304 304 304
305 307 308 310 311 312 313 313 312 312 312 313 313 312 312 312 312 311 309 308 307 301 290 295 294 296 298 297 296 298 298 297 299 302 303 304 304 304 304 303 304 303 302
306 307 308 309 310 311 312 312 312 311 311 311 312 311 311 310 307 308 308 306 304 300 292 293 295 295 295 296 297 298 298 298 297 298 299 300 300 301 301 301 301 300 299
306 307 307 308 310 311 311 311 310 310 310 310 311 310 309 307 305 306 308 303 301 300 295 291 292 291 291 294 294 293 294 295 295 296 297 297 297 297 297 297 297 297 296
305 306 306 307 309 310 311 312 311 310 310 311 311 310 308 305 302 304 305 303 301 300 297 294 290 291 290 290 289 290 290 291 292 293 294 294 294 294 294 294 294 293 292
304 305 306 306 308 309 311 311 311 310 310 310 310 312 309 306 303 302 303 302 301 298 295 293 290 289 288 288 289 286 285 287 287 289 290 291 291 292 292 292 290 290 290
304 305 306 306 307 307 309 311 310 310 310 309 309 309 309 303 297 300 303 302 300 297 294 291 289 288 286 285 285 286 284 284 285 287 287 287 288 287 288 288 288 289 289
303 304 305 305 305 306 300 298 304 309 309 309 308 308 305 293 297 296 297 298 300 297 294 293 291 288 287 287 286 285 284 283 282 286 285 285 287 285 286 287 288 288 288
302 303 305 305 305 306 298 298 295 308 308 309 308 306 301 300 296 300 296 295 295 296 298 297 294 292 289 289 287 285 285 285 284 284 285 283 286 284 285 286 288 287 287
301 302 304 305 305 304 297 296 294 305 308 309 307 306 303 300 301 299 298 299 299 299 299 299 298 296 293 291 289 289 287 283 283 284 285 282 284 283 284 284 287 287 286
300 302 303 304 303 304 295 293 296 302 304 306 306 305 304 302 296 295 298 296 293 293 296 296 296 295 294 292 291 286 284 283 280 281 283 284 283 282 283 283 283 286 286
298 298 299 302 294 301 293 294 295 299 300 298 300 302 289 300 293 295 299 292 290 291 291 290 290 292 292 291 289 290 286 285 283 281 283 283 281 281 278 282 280 281 282
Wind_Speed
4 4 5 5 5 6 5 7 6 5 6 8 8 10 10 9 9 5 4 5 7 9 11 12 12 19 23 30 30 29 26 24 24 22 23 22 22 21 21 19 18 17 16
3 4 5 5 6 6 6 6 6 6 4 2 4 9 9 9 8 5 3 5 7 6 8 11 13 18 30 32 30 30 27 26 25 24 23 21 21 20 19 19 18 15 15
4 5 4 6 4 5 6 6 7 7 7 9 10 9 7 9 9 7 3 4 5 9 6 7 5 10 33 30 28 30 28 27 27 25 24 22 22 22 22 18 19 17 17
4 4 4 4 6 4 5 6 6 6 7 7 6 7 7 8 9 8 4 1 2 4 5 20 21 29 22 27 29 30 29 29 27 25 25 23 22 21 20 18 18 17 17
4 4 4 3 6 4 5 4 6 6 6 6 7 6 6 6 7 7 8 7 1 5 8 10 20 27 27 25 31 31 30 28 27 26 25 24 21 20 19 18 18 17 15
3 3 3 4 5 4 4 6 5 5 5 4 3 4 5 6 7 8 8 5 11 11 9 7 7 8 25 25 31 31 30 29 27 25 23 22 20 20 19 18 17 17 16
2 3 3 4 5 5 6 6 5 6 5 6 2 3 2 7 11 10 8 8 11 10 9 8 8 5 10 27 28 30 29 27 25 25 24 22 20 19 18 18 17 16 13
2 3 4 4 4 4 5 6 8 5 3 6 3 4 3 4 7 10 8 10 13 10 11 9 15 12 11 13 19 26 27 28 25 23 22 22 21 19 18 17 16 13 16
0 2 3 3 3 4 4 6 5 6 5 4 7 3 3 3 3 7 11 12 13 11 13 12 17 12 16 13 15 19 23 23 24 23 23 22 21 18 17 15 13 17 15
1 2 2 3 4 4 4 4 4 5 5 5 3 5 5 5 3 4 8 10 13 13 15 14 15 14 14 11 17 18 18 20 21 21 20 20 18 16 16 14 17 15 15
2 1 2 2 3 3 4 5 5 5 4 4 4 3 6 7 7 5 6 8 13 11 13 12 13 11 13 13 12 17 22 21 18 16 15 16 17 17 18 16 15 15 20
3 2 1 1 3 3 4 3 4 5 4 3 3 4 4 3 3 6 7 7 8 8 11 10 11 10 10 11 14 20 22 22 23 21 20 18 17 17 16 12 16 20 20
4 3 2 2 1 2 2 2 3 3 4 4 5 4 5 7 5 9 9 6 8 7 7 10 8 8 8 9 11 18 19 22 23 20 20 17 15 14 16 19 20 19 18
3 3 2 2 1 2 1 2 2 2 3 3 6 5 5 6 6 5 6 11 9 5 8 5 8 7 8 9 11 17 13 20 21 20 18 16 15 18 18 18 18 18 16
4 3 2 2 2 1 1 1 1 2 2 4 5 6 6 6 5 5 6 4 6 7 4 6 4 8 8 8 9 12 11 19 20 18 16 13 15 17 17 17 15 16 16
5 4 3 2 2 1 1 1 2 3 3 3 4 5 7 4 5 6 3 3 5 10 7 2 6 5 8 9 10 13 12 15 18 18 15 16 16 16 16 14 16 14 15
5 5 4 3 2 2 1 1 3 2 4 4 6 7 7 8 4 4 5 7 8 9 11 5 3 4 7 9 9 9 10 10 9 14 15 17 17 19 17 16 15 14 13
5 5 4 3 3 2 2 1 3 2 4 5 5 7 8 5 6 3 6 9 9 9 12 17 4 3 5 7 9 11 8 7 8 12 15 17 19 19 17 17 16 16 12
6 5 4 4 3 4 3 2 3 3 3 4 4 8 7 7 6 5 5 9 9 10 8 8 8 3 3 4 8 8 8 8 7 14 15 17 16 15 14 14 15 12 9
6 5 5 4 3 3 3 4 3 3 3 4 2 5 7 6 6 6 7 11 11 10 9 8 7 5 3 3 5 7 6 4 5 5 11 10 10 11 12 13 10 8 8
6 6 5 5 4 3 1 4 4 4 3 4 5 5 4 6 11 8 7 10 13 10 9 8 7 5 5 6 8 3 5 5 4 1 5 4 4 4 4 7 7 7 7
7 6 6 6 5 3 4 1 3 4 4 4 5 5 5 6 7 10 9 8 15 17 12 8 6 9 9 8 5 8 8 5 4 2 3 1 3 3 3 4 8 7 6
7 7 7 6 5 5 6 4 4 3 4 5 5 6 5 4 7 7 9 8 6 6 11 12 13 11 10 12 10 10 9 4 3 6 5 3 0 2 1 4 9 7 6
7 6 6 6 5 3 6 5 4 5 5 4 5 5 6 8 8 9 10 9 9 9 8 6 7 7 5 10 10 6 7 6 6 3 1 3 2 3 1 1 7 8 7
6 6 5 7 6 4 5 3 3 4 4 5 4 6 7 8 12 13 10 8 7 5 5 7 8 13 16 19 12 10 7 7 3 4 3 2 4 3 3 2 1 10 9
4 3 3 2 3 1 4 3 2 2 4 3 4 4 7 8 12 15 11 9 9 8 8 6 6 10 16 17 23 11 10 9 4 3 6 5 6 4 3 4 3 2 2
Wind_Direction
5 6 1 357 353 355 332 345 341 348 335 351 328 342 323 328 312 301 311 165 213 230 239 238 236 196 170 149 147 144 146 147 139 132 129 126 120 116 112 107 104 95 88
9 1 4 358 7 350 333 342 348 353 334 317 324 351 337 314 317 354 342 283 217 218 218 234 256 194 165 151 152 146 142 145 135 127 124 125 119 115 110 106 101 99 99
8 359 5 11 356 317 335 346 4 349 4 7 0 357 333 339 355 2 326 314 149 192 197 267 111 201 172 153 143 137 139 140 129 126 123 121 118 110 109 110 99 98 90
8 4 9 22 350 342 346 351 354 357 5 19 2 355 352 354 347 342 348 290 308 153 161 123 110 89 86 140 143 139 137 132 129 125 119 119 115 113 109 108 106 95 89
6 355 25 10 353 323 356 18 324 22 1 21 19 1 359 354 349 356 355 357 92 107 134 111 126 134 141 153 134 129 131 127 123 122 120 116 117 114 114 109 101 97 93
2 350 22 18 356 347 5 12 347 6 1 6 343 355 3 10 14 9 1 358 75 75 102 102 108 125 137 135 129 127 124 123 121 120 119 119 117 116 114 110 108 104 100
18 358 19 28 2 1 4 4 337 5 5 356 286 261 357 29 30 20 13 45 62 54 54 64 91 105 111 127 125 122 120 121 122 120 119 120 121 118 116 108 106 101 116
26 5 5 22 7 354 7 24 341 355 10 17 349 300 25 6 19 21 23 54 56 55 59 66 111 78 113 103 110 114 121 121 119 121 123 123 118 111 107 104 105 120 100
67 13 19 357 4 358 4 26 330 9 344 45 45 332 34 12 325 11 32 64 62 71 63 79 61 79 88 94 98 104 113 118 118 116 113 112 104 103 104 110 116 109 102
152 20 351 4 10 347 360 14 341 349 354 27 78 50 60 41 36 48 42 56 75 71 79 69 66 60 68 73 74 74 83 92 100 101 101 103 107 115 122 117 99 99 117
184 59 3 17 31 354 357 17 348 356 22 22 47 54 63 55 39 51 75 68 57 54 71 71 72 66 70 74 84 81 83 81 79 86 94 101 104 105 100 98 105 120 106
169 172 157 52 48 9 359 3 342 353 19 48 34 38 57 116 90 83 77 51 69 46 53 60 73 71 68 78 77 79 83 86 83 81 82 83 88 92 93 90 107 99 92
180 165 154 92 66 23 340 320 7 360 17 57 51 66 81 104 110 116 110 90 79 33 41 40 51 78 79 81 80 83 82 85 84 80 80 78 81 90 91 86 90 92 91
164 161 154 110 38 46 349 321 27 24 13 58 68 81 96 93 110 122 124 132 98 66 45 28 26 53 82 85 86 84 83 85 85 83 83 84 89 93 92 93 91 90 95
158 174 184 166 132 127 61 286 83 72 71 81 87 100 106 117 124 99 131 129 130 133 76 14 64 25 60 71 70 84 85 79 82 81 78 81 92 97 98 97 108 107 108
168 178 186 191 128 86 90 56 110 109 124 105 115 112 119 109 86 130 106 65 93 123 116 63 50 57 73 76 69 77 75 73 73 74 82 86 90 95 96 96 96 105 106
177 177 185 184 153 162 117 80 101 112 129 125 132 134 117 115 117 108 102 98 113 111 118 97 75 66 71 89 81 80 74 74 74 76 79 81 79 76 78 90 94 96 103
180 172 185 191 170 171 157 111 108 105 131 136 132 120 130 123 105 85 116 108 115 122 135 130 126 91 75 81 88 85 80 83 82 74 84 83 82 83 85 89 87 84 99
180 176 182 193 186 163 184 156 118 123 122 137 149 141 136 129 119 119 121 122 121 127 135 137 128 109 91 97 88 77 79 80 79 82 74 75 80 87 88 90 81 86 109
183 187 186 180 195 160 197 158 148 142 138 129 98 129 140 141 140 137 130 134 137 131 129 133 120 121 113 107 106 122 103 76 85 80 72 78 81 84 87 94 114 100 108
184 188 183 186 192 186 175 187 167 165 161 156 151 153 145 142 151 155 146 147 146 140 138 140 139 126 130 156 161 156 122 114 50 63 117 108 116 101 112 112 126 133 124
183 186 197 191 193 188 152 232 213 175 185 187 179 158 146 144 138 140 137 162 168 153 159 154 155 164 172 164 148 153 143 145 149 262 122 128 140 138 167 162 135 151 143
187 195 197 197 203 201 171 186 225 223 199 202 191 173 148 145 148 148 147 131 130 152 166 166 172 182 167 175 151 155 171 160 132 149 152 126 61 106 14 128 158 163 165
190 195 194 196 202 201 183 205 199 220 223 202 182 191 173 161 165 161 160 168 170 174 177 166 166 172 147 156 163 151 140 94 74 126 89 136 170 167 157 180 186 191 181
184 192 191 194 204 215 178 237 216 205 226 200 193 177 183 175 165 155 162 166 155 166 156 121 121 129 142 156 152 130 153 143 129 190 199 134 166 129 188 174 110 208 198
169 116 150 141 131 164 133 207 263 250 222 202 186 189 193 181 164 169 165 159 171 186 160 134 118 132 149 164 165 174 160 172 134 158 187 171 158 153 191 202 174 181 154